Torna al catalogo

ISIS 2

AttivoScienzaPO
NORAD 5104·PAYLOAD·🇨🇦 Canada

Lanciato Apr 1, 1971 da Vandenberg Space Force Base

Loading…

Prossimi Passaggi

TLE

Source: Space-Track
1  5104U 71024A   26221.75424126  .00000005  00000-0 -29717-4 0  9994
2  5104  88.1672 307.7858 0043178 342.8777 135.0853 12.67885765561533

Traccia ISIS 2 in tempo reale con AllMySat

Download on the App Store